N124MC KAVL-KGKT

Flight info

Callsign N124MC
Flight time 0h 29m
Altitude 8500
Route VFR
Aircraft M20P/L-VGD/C

Departure

Time 2026-04-28 23:58
Airport Asheville Regional Airport (KAVL)

Arrival

Time 2026-04-29 00:27
Airport Gatlinburg-Pigeon Forge Airport (KGKT)
Time Latitude Longitude Altitude Speed Heading
2026-04-28 23:51 35.44044 -82.54114 2156 ft 0 kts 250°
2026-04-28 23:53 35.44062 -82.54140 2155 ft 11 kts 331°
2026-04-28 23:54 35.44128 -82.54206 2155 ft 13 kts 257°
2026-04-28 23:54 35.44149 -82.54303 2157 ft 16 kts 339°
2026-04-28 23:54 35.44290 -82.54366 2155 ft 27 kts 339°
2026-04-28 23:54 35.44468 -82.54446 2154 ft 27 kts 339°
2026-04-28 23:55 35.44636 -82.54522 2152 ft 14 kts 335°
2026-04-28 23:55 35.44663 -82.54567 2152 ft 0 kts 262°
2026-04-28 23:56 35.44625 -82.54659 2154 ft 16 kts 180°
2026-04-28 23:57 35.44422 -82.54573 2152 ft 52 kts 160°
2026-04-28 23:57 35.43985 -82.54368 2218 ft 75 kts 158°
2026-04-28 23:57 35.43459 -82.54113 2394 ft 86 kts 159°
2026-04-28 23:57 35.42868 -82.53914 2606 ft 95 kts 179°
2026-04-28 23:58 35.42251 -82.54264 2782 ft 111 kts 240°
2026-04-28 23:58 35.42220 -82.55232 3039 ft 119 kts 274°
2026-04-28 23:58 35.42245 -82.56263 3294 ft 123 kts 271°
2026-04-28 23:58 35.42343 -82.57315 3542 ft 126 kts 279°
2026-04-28 23:59 35.42470 -82.58384 3796 ft 126 kts 279°
2026-04-28 23:59 35.42588 -82.59430 4094 ft 122 kts 279°
2026-04-28 23:59 35.42703 -82.60447 4381 ft 119 kts 279°
2026-04-28 23:59 35.42818 -82.61437 4676 ft 116 kts 279°
2026-04-29 00:00 35.42935 -82.62399 4965 ft 113 kts 279°
2026-04-29 00:00 35.43049 -82.63345 5248 ft 112 kts 278°
2026-04-29 00:00 35.43162 -82.64281 5533 ft 110 kts 278°
2026-04-29 00:00 35.43277 -82.65208 5828 ft 108 kts 278°
2026-04-29 00:01 35.43398 -82.66116 6096 ft 108 kts 279°
2026-04-29 00:01 35.43530 -82.67036 6349 ft 111 kts 279°
2026-04-29 00:01 35.43664 -82.67983 6590 ft 113 kts 279°
2026-04-29 00:01 35.43800 -82.68941 6823 ft 114 kts 278°
2026-04-29 00:02 35.43935 -82.69893 7055 ft 112 kts 279°
2026-04-29 00:02 35.44071 -82.70831 7300 ft 112 kts 279°
2026-04-29 00:02 35.44212 -82.71780 7540 ft 114 kts 279°
2026-04-29 00:02 35.44347 -82.72753 7779 ft 116 kts 279°
2026-04-29 00:03 35.44492 -82.73717 8017 ft 116 kts 278°
2026-04-29 00:03 35.44644 -82.74678 8255 ft 114 kts 278°
2026-04-29 00:03 35.44797 -82.75615 8479 ft 113 kts 279°
2026-04-29 00:03 35.44954 -82.76628 8497 ft 129 kts 279°
2026-04-29 00:04 35.45131 -82.77766 8504 ft 142 kts 279°
2026-04-29 00:04 35.45330 -82.78998 8502 ft 150 kts 279°
2026-04-29 00:04 35.45532 -82.80280 8504 ft 156 kts 279°
2026-04-29 00:04 35.45737 -82.81602 8506 ft 159 kts 279°
2026-04-29 00:05 35.45942 -82.82953 8502 ft 162 kts 279°
2026-04-29 00:05 35.46149 -82.84324 8505 ft 165 kts 279°
2026-04-29 00:05 35.46363 -82.85707 8509 ft 166 kts 279°
2026-04-29 00:05 35.46579 -82.87098 8503 ft 166 kts 279°
2026-04-29 00:06 35.46796 -82.88491 8504 ft 166 kts 279°
2026-04-29 00:06 35.47010 -82.89885 8497 ft 166 kts 279°
2026-04-29 00:06 35.47224 -82.91276 8498 ft 166 kts 279°
2026-04-29 00:06 35.47438 -82.92664 8494 ft 166 kts 279°
2026-04-29 00:07 35.47652 -82.94054 8491 ft 166 kts 279°
2026-04-29 00:07 35.47866 -82.95444 8497 ft 167 kts 279°
2026-04-29 00:07 35.48082 -82.96841 8494 ft 166 kts 279°
2026-04-29 00:07 35.48297 -82.98234 8492 ft 166 kts 279°
2026-04-29 00:08 35.48512 -82.99625 8491 ft 166 kts 279°
2026-04-29 00:08 35.48727 -83.01018 8494 ft 166 kts 279°
2026-04-29 00:08 35.48941 -83.02407 8490 ft 165 kts 279°
2026-04-29 00:08 35.49148 -83.03785 8496 ft 163 kts 279°
2026-04-29 00:09 35.49427 -83.05140 8495 ft 165 kts 287°
2026-04-29 00:09 35.49826 -83.06461 8497 ft 165 kts 288°
2026-04-29 00:09 35.50172 -83.07817 8502 ft 167 kts 283°
2026-04-29 00:09 35.50459 -83.09194 8501 ft 166 kts 282°
2026-04-29 00:10 35.50709 -83.10573 8498 ft 165 kts 278°
2026-04-29 00:10 35.50881 -83.11957 8494 ft 163 kts 277°
2026-04-29 00:10 35.51046 -83.13331 8500 ft 163 kts 277°
2026-04-29 00:10 35.51221 -83.14716 8498 ft 165 kts 277°
2026-04-29 00:11 35.51394 -83.16108 8496 ft 165 kts 277°
2026-04-29 00:11 35.51565 -83.17498 8496 ft 164 kts 277°
2026-04-29 00:11 35.51901 -83.20257 8501 ft 165 kts 277°
2026-04-29 00:12 35.52077 -83.21646 8505 ft 166 kts 277°
2026-04-29 00:12 35.52254 -83.23042 8499 ft 165 kts 277°
2026-04-29 00:12 35.52428 -83.24426 8505 ft 164 kts 277°
2026-04-29 00:12 35.52603 -83.25798 8504 ft 165 kts 277°
2026-04-29 00:13 35.52779 -83.27192 8507 ft 165 kts 277°
2026-04-29 00:13 35.52957 -83.28588 8496 ft 166 kts 277°
2026-04-29 00:13 35.53136 -83.29977 8504 ft 165 kts 277°
2026-04-29 00:13 35.53311 -83.31362 8497 ft 162 kts 278°
2026-04-29 00:14 35.53482 -83.32719 8498 ft 161 kts 277°
2026-04-29 00:14 35.53653 -83.34078 8499 ft 162 kts 277°
2026-04-29 00:14 35.53829 -83.35447 8499 ft 163 kts 277°
2026-04-29 00:14 35.53951 -83.36374 8502 ft 163 kts 277°
2026-04-29 00:15 35.54131 -83.37760 8501 ft 165 kts 277°
2026-04-29 00:15 35.54314 -83.39153 8503 ft 166 kts 277°
2026-04-29 00:15 35.54498 -83.40551 8503 ft 166 kts 277°
2026-04-29 00:15 35.54684 -83.41955 8509 ft 167 kts 278°
2026-04-29 00:16 35.54868 -83.43371 8513 ft 169 kts 277°
2026-04-29 00:16 35.55062 -83.44795 8507 ft 169 kts 278°
2026-04-29 00:16 35.55265 -83.46216 8503 ft 168 kts 277°
2026-04-29 00:16 35.55464 -83.47627 8503 ft 168 kts 278°
2026-04-29 00:17 35.55651 -83.49036 8502 ft 166 kts 277°
2026-04-29 00:17 35.55863 -83.50426 8505 ft 167 kts 286°
2026-04-29 00:17 35.56647 -83.51465 8495 ft 176 kts 333°
2026-04-29 00:17 35.57876 -83.51454 8493 ft 184 kts 15°
2026-04-29 00:18 35.59059 -83.50850 8508 ft 184 kts 18°
2026-04-29 00:18 35.60291 -83.50657 8508 ft 177 kts 346°
2026-04-29 00:18 35.61463 -83.51080 8509 ft 177 kts 341°
2026-04-29 00:18 35.62695 -83.51276 8512 ft 180 kts 352°
2026-04-29 00:19 35.63940 -83.51346 8507 ft 178 kts 353°
2026-04-29 00:19 35.65166 -83.51422 8435 ft 178 kts 352°
2026-04-29 00:19 35.66408 -83.51510 8060 ft 179 kts 352°
2026-04-29 00:19 35.67650 -83.51596 7690 ft 179 kts 352°
2026-04-29 00:20 35.68890 -83.51683 7309 ft 179 kts 352°
2026-04-29 00:20 35.70134 -83.51771 6925 ft 179 kts 352°
2026-04-29 00:20 35.71384 -83.51860 6529 ft 180 kts 352°
2026-04-29 00:20 35.72631 -83.51948 6105 ft 180 kts 353°
2026-04-29 00:21 35.73879 -83.52036 5726 ft 179 kts 353°
2026-04-29 00:21 35.75122 -83.52122 5362 ft 179 kts 353°
2026-04-29 00:21 35.76370 -83.52212 5002 ft 179 kts 352°
2026-04-29 00:21 35.77469 -83.52783 4617 ft 172 kts 310°
2026-04-29 00:22 35.77851 -83.54090 4231 ft 164 kts 262°
2026-04-29 00:22 35.77297 -83.55244 3850 ft 161 kts 215°
2026-04-29 00:22 35.76212 -83.55434 3484 ft 167 kts 167°
2026-04-29 00:22 35.75339 -83.54489 3129 ft 177 kts 118°
2026-04-29 00:23 35.75312 -83.53019 2861 ft 175 kts 68°
2026-04-29 00:23 35.76157 -83.52018 2603 ft 170 kts 17°
2026-04-29 00:23 35.77305 -83.51894 2372 ft 165 kts 357°
2026-04-29 00:23 35.78446 -83.51917 2121 ft 163 kts 356°
2026-04-29 00:24 35.79527 -83.51929 2104 ft 149 kts 356°
2026-04-29 00:24 35.80517 -83.51934 2092 ft 137 kts 355°
2026-04-29 00:24 35.81432 -83.52044 2099 ft 128 kts 347°
2026-04-29 00:24 35.82273 -83.52219 2087 ft 113 kts 348°
2026-04-29 00:25 35.82975 -83.52038 2088 ft 101 kts 32°
2026-04-29 00:25 35.83337 -83.51327 1992 ft 103 kts 85°
2026-04-29 00:25 35.83330 -83.50481 1911 ft 106 kts 72°
2026-04-29 00:25 35.83848 -83.49832 1715 ft 109 kts 22°
2026-04-29 00:26 35.84526 -83.49686 1649 ft 95 kts 350°
2026-04-29 00:26 35.85056 -83.50152 1542 ft 92 kts 307°
2026-04-29 00:26 35.85387 -83.50763 1330 ft 83 kts 293°
2026-04-29 00:26 35.85570 -83.51401 1156 ft 76 kts 282°
2026-04-29 00:27 35.85664 -83.52005 1018 ft 67 kts 275°
2026-04-29 00:27 35.85724 -83.52489 1010 ft 47 kts 279°
2026-04-29 00:27 35.85756 -83.52698 1011 ft 10 kts 303°
2026-04-29 00:27 35.85833 -83.52709 1011 ft 12 kts
2026-04-29 00:28 35.85847 -83.52694 1011 ft 0 kts 99°